SL-16 DEB

Satellite information

Favourite Embed

Satellite Type and Status

DEBRISIN ORBIT

Key statistics

Satellite SL-16 DEB at a glance.

Uptime

11820

Days in orbit

Revolutions

≈ 14.1

Per day

Orbit

LEO

Low Earth Orbit

Inclination

71.0

Latest

Satellite identification and parameters

Extended collection of information and parameters for SL-16 DEB.

Object identification

Identified? True

Debris? True

Object name: SL-16 DEB

International designator: 1992-093AS

Object number (NORAD): 22353

Object ID (CCSDS): 22353

Country: COMMONWEALTH OF INDEPENDENT STATES (CIS)

Current information (Y/N): Y

RCS size: SMALL

Orbital parameters

Period: 101.972 minutes

Inclination: 70.9656 deg

SMA: 7230.168 km

Apoapsis: 931.303 km

Periapsis: 772.763 km

RAAN: 7.2015 deg

Eccentricy: 0.0109638

Argument of periapsis: 133.1689 deg

Mean anomaly: 308.3776 deg

Mean motion: 14.12147954 rev/day

Mean motion (dot): 0.00001473 rev/day2

B* drag term: 0.00078196 1/REarth

Two-line elements (TLE)

Creation date: May 6, 2025, 3:54 a.m.

Reference frame: TEME

Reference center: EARTH

Epoch: May 5, 2025, 8:14 p.m. UTC

TLE line 0: 0 SL-16 DEB

TLE line 1: 1 22353U 92093AS 25125.84368797 .00001473 00000-0 78196-3 0 9994

TLE line 2: 2 22353 70.9656 7.2015 0109638 133.1689 308.3776 14.12147954654279

Live tracking on map

Real-time ground track for satellite SL-16 DEB.

In-orbit conjunctions

A list of the most updated potential collisions computed for object SL-16 DEB.

Target Orbit TCA Probability of collision Miss distance Type
FENGYUN 1C DEB SSO 2025-04-23 19:23:38 0.00010128 208.0 (m) DEBRIS
NOAA 16 DEB SSO 2024-12-23 19:45:18 0.0001623608 55.0 (m) DEBRIS
COSMOS 783 LEO 2024-10-27 00:27:03 0.0001594174 709.0 (m) PAYLOAD

Associated space launch

Second generation ELING satellite

SL-16 DEB was lifted into orbit during the mission ‘Zenit-2 | Tselina-2 12’, on board a Zenit-2 space rocket.

The launch took place on Dec. 25, 1992, 5:56 a.m. from 45/1.

For more information about the launch, click the button.

Launch to space Zenit-2 | Tselina-2 12
Zenit-2 | Tselina-2 12

Agency: N/A

Status: Launch Successful

Launch date: Dec. 25, 1992, 5:56 a.m. UTC

Rocket: Zenit-2

Launch pad: 45/1

Location: Baikonur Cosmodrome, Republic of Kazakhstan

...

Latest news about this satellite

There are no fresh news available about this satellite. Check back as we update our databases every day.


Newsletter sign-up

Weekly statistics, charts and insights to help you stay on top of the space industry.